Weather History for Tirana, Albania

Change the Weather History Date:

Friday, December 7, 2012

  Actual Average Record
Temperature  
Mean Temperature 40 °F -  
Max Temperature 50 °F 53 °F 68 °F (2010)
Min Temperature 30 °F 37 °F 30 °F (1998)
Degree Days  
Heating Degree Days 25    
Moisture  
Dew Point 35 °F    
Average Humidity 80    
Maximum Humidity 100    
Minimum Humidity 53    
Precipitation  
Precipitation 0.00 in -13.12 in - ()
Sea Level Pressure  
Sea Level Pressure 29.91 in    
Wind  
Wind Speed 2 mph ()    
Max Wind Speed 10 mph    
Max Gust Speed -    
Visibility 5.3 miles    
Events Fog , Rain    
Averages and records for this station are not official NWS values.
T = Trace of Precipitation, MM = Missing Value Source: Averaged Metar Reports

Daily Weather History Graph

Daily Weather History Graph

Search for Another Location

Airport:

Trip Planner

Search our weather history database for the weather conditions in past years. The results will help you decide how hot, cold, wet, or windy it might be!

Date:

Astronomy

Dec. 07, 2012 Rise Set
Actual Time 6:53 AM CET 4:11 PM CET
Civil Twilight 6:22 AM CET 4:42 PM CET
Nautical Twilight 5:48 AM CET 5:17 PM CET
Astronomical Twilight 5:14 AM CET 5:50 PM CET
Moon No Moon Rise 12:02 PM CET (12/7)
Length of Visible Light 10h 19m
Length of Day
9h 17m
Last Quarter, 41% of the Moon is Illuminated
Dec 7
Last Quarter
Dec 13
New
Dec 20
First Quarter
Dec 28
Full
Jan 5
Last Quarter

Hourly Weather History & Observations

Time (CET) Temp. Windchill Dew Point Humidity Pressure Visibility Wind Dir Wind Speed Gust Speed Precip Events Conditions
12:20 AM 41.0 °F - 37.4 °F 87% 29.83 in 6.2 mi Variable 2.3 mph - N/A   Mostly Cloudy
12:50 AM 39.2 °F - 35.6 °F 87% 29.83 in 6.2 mi Calm Calm - N/A   Mostly Cloudy
1:20 AM 37.4 °F - 33.8 °F 87% 29.83 in 6.2 mi Calm Calm - N/A   Scattered Clouds
1:50 AM 35.6 °F - 33.8 °F 93% 29.83 in 6.2 mi Calm Calm - N/A   Scattered Clouds
2:20 AM 33.8 °F - 33.8 °F 100% 29.86 in 6.2 mi NE 2.3 mph - N/A   Scattered Clouds
2:50 AM 33.8 °F - 33.8 °F 100% 29.86 in 6.2 mi East 2.3 mph - N/A   Scattered Clouds
3:20 AM 33.8 °F - 32.0 °F 93% 29.86 in 4.3 mi WNW 1.2 mph - N/A   Scattered Clouds
3:50 AM 33.8 °F 30.8 °F 32.0 °F 93% 29.86 in 3.1 mi South 3.5 mph - N/A   Partly Cloudy
4:00 AM 32 °F - 31 °F 94% 29.87 in 1 mi SSW 2.2 mph - -  
4:20 AM 32.0 °F - 32.0 °F 100% 29.86 in 1.6 mi Calm Calm - N/A   Partly Cloudy
4:50 AM 32.0 °F - 30.2 °F 93% 29.86 in 0.1 mi Calm Calm - N/A Fog Light Freezing Fog
5:20 AM 32.0 °F 27.5 °F 30.2 °F 93% 29.86 in 1.9 mi East 4.6 mph - N/A   Mist
5:50 AM 30.2 °F - 30.2 °F 100% 29.89 in 0.2 mi Calm Calm - N/A Fog Light Freezing Fog
6:20 AM 32.0 °F - 30.2 °F 93% 29.89 in 1.9 mi Calm Calm - N/A   Partly Cloudy
6:50 AM 32.0 °F - 30.2 °F 93% 29.89 in 1.7 mi Variable 2.3 mph - N/A   Partly Cloudy
7:20 AM 32.0 °F - 30.2 °F 93% 29.92 in 0.2 mi Calm Calm - N/A Fog Shallow Fog
7:50 AM 32.0 °F - 30.2 °F 93% 29.92 in 1.0 mi ENE 2.3 mph - N/A   Partly Cloudy
8:20 AM 32.0 °F - 32.0 °F 100% 29.92 in 1.5 mi ESE 2.3 mph - N/A Fog Shallow Fog
8:50 AM 39.2 °F - 37.4 °F 93% 29.95 in 5.0 mi Calm Calm - N/A   Mist
9:20 AM 41.0 °F - 37.4 °F 87% 29.95 in 6.2 mi Variable 2.3 mph - N/A   Scattered Clouds
9:50 AM 44.6 °F - 37.4 °F 76% 29.95 in 6.2 mi Calm Calm - N/A   Mostly Cloudy
10:00 AM 45 °F - 36 °F 63% 29.96 in 12 mi SE 2.2 mph - -   Mostly Cloudy
10:20 AM 44.6 °F - 35.6 °F 71% 29.95 in 6.2 mi Calm Calm - N/A   Scattered Clouds
10:50 AM 46.4 °F - 37.4 °F 71% 29.95 in 6.2 mi Calm Calm - N/A   Mostly Cloudy
11:20 AM 48.2 °F - 35.6 °F 62% 29.95 in 6.2 mi Calm Calm - N/A   Mostly Cloudy
11:50 AM 48.2 °F - 35.6 °F 62% 29.95 in 6.2 mi Variable 2.3 mph - N/A   Scattered Clouds
12:20 PM 50.0 °F - 33.8 °F 54% 29.92 in 6.2 mi Calm Calm - N/A   Scattered Clouds
12:50 PM 50.0 °F - 35.6 °F 58% 29.92 in 6.2 mi SSW 3.5 mph - N/A   Scattered Clouds
1:20 PM 50.0 °F - 37.4 °F 62% 29.92 in 6.2 mi West 3.5 mph - N/A   Scattered Clouds
1:50 PM 50.0 °F - 33.8 °F 54% 29.92 in 6.2 mi South 5.8 mph - N/A   Overcast
2:20 PM 50.0 °F - 35.6 °F 58% 29.92 in 6.2 mi SSW 3.5 mph - N/A   Overcast
2:50 PM 48.2 °F - 35.6 °F 62% 29.92 in 6.2 mi SW 3.5 mph - N/A   Mostly Cloudy
3:20 PM 48.2 °F - 37.4 °F 66% 29.92 in 6.2 mi West 2.3 mph - N/A   Mostly Cloudy
3:50 PM 46.4 °F - 35.6 °F 66% 29.92 in 6.2 mi Calm Calm - N/A   Mostly Cloudy
4:00 PM 47 °F - 35 °F 53% 29.94 in 28 mi Calm Calm - -   Overcast
4:20 PM 46.4 °F - 35.6 °F 66% 29.92 in 6.2 mi Calm Calm - N/A   Mostly Cloudy
4:50 PM 46.4 °F - 35.6 °F 66% 29.92 in 6.2 mi Calm Calm - N/A   Overcast
5:20 PM 44.6 °F 43.1 °F 37.4 °F 76% 29.92 in 6.2 mi ESE 3.5 mph - N/A   Overcast
5:50 PM 44.6 °F 41.4 °F 39.2 °F 81% 29.95 in 6.2 mi South 5.8 mph - N/A   Mostly Cloudy
6:20 PM 46.4 °F 45.2 °F 35.6 °F 66% 29.95 in 6.2 mi SW 3.5 mph - N/A Rain Light Rain
6:50 PM 44.6 °F 40.7 °F 35.6 °F 71% 29.95 in 6.2 mi SW 6.9 mph - N/A Rain Light Rain
7:20 PM 42.8 °F 38.6 °F 37.4 °F 81% 29.95 in 6.2 mi SE 6.9 mph - N/A   Mostly Cloudy
7:50 PM 42.8 °F 37.0 °F 37.4 °F 81% 29.95 in 6.2 mi SSE 10.4 mph - N/A   Scattered Clouds
8:20 PM 44.6 °F 39.7 °F 37.4 °F 76% 29.95 in 6.2 mi SE 9.2 mph - N/A   Mostly Cloudy
8:50 PM 44.6 °F 40.7 °F 37.4 °F 76% 29.95 in 6.2 mi ESE 6.9 mph - N/A   Overcast
9:20 PM 42.8 °F 38.0 °F 37.4 °F 81% 29.95 in 6.2 mi SSE 8.1 mph - N/A   Scattered Clouds
9:50 PM 41.0 °F 36.4 °F 37.4 °F 87% 29.95 in 6.2 mi South 6.9 mph - N/A   Scattered Clouds
10:00 PM 41 °F - 38 °F 85% 29.95 in 14 mi SSE 6.7 mph - -   Scattered Clouds
10:20 PM 41.0 °F 35.8 °F 37.4 °F 87% 29.92 in 6.2 mi SSE 8.1 mph - N/A   Mostly Cloudy
10:50 PM 41.0 °F 35.8 °F 37.4 °F 87% 29.92 in 6.2 mi SSE 8.1 mph - N/A   Mostly Cloudy
11:20 PM 41.0 °F 35.8 °F 37.4 °F 87% 29.92 in 6.2 mi South 8.1 mph - N/A   Mostly Cloudy
11:50 PM 41.0 °F 36.4 °F 37.4 °F 87% 29.92 in 6.2 mi SSE 6.9 mph - N/A   Mostly Cloudy